Cloud_Cover
0 0 0 0 0 0 0 0 0 0 0 0 0 0 0 0 0 0 0 0 0 0 0 0 0 0 6 26 0 0 0 0 0 0 7 12 5 5 12 91 29 5 91 70 100 91 100 99 40
0 0 0 0 0 0 0 0 0 0 0 0 0 0 0 0 0 0 0 0 0 0 0 0 0 0 0 0 0 0 0 0 0 10 6 8 1 8 9 4 14 41 26 100 84 81 72 13 33
0 0 0 0 0 0 0 0 0 0 0 0 0 0 0 0 0 0 0 0 0 0 0 0 0 0 0 0 0 0 0 0 0 0 0 1 7 0 0 0 94 98 28 66 94 95 100 92 5
0 0 0 0 0 0 0 0 0 0 0 0 0 0 0 0 0 0 0 0 0 0 0 0 0 0 0 0 0 0 0 0 0 0 0 9 19 0 0 0 100 100 30 27 92 100 85 100 6
0 0 0 0 0 0 0 0 0 0 0 0 0 0 0 0 0 0 0 0 0 0 0 0 0 0 0 0 0 0 0 0 0 0 0 0 0 0 0 1 100 100 35 0 81 100 79 5 17
0 0 0 0 0 0 0 0 0 0 0 0 0 0 0 0 0 0 0 0 0 0 0 0 18 0 1 0 0 0 0 0 0 0 0 0 0 0 0 12 82 58 0 0 2 5 6 100 86
0 0 0 0 0 0 0 0 4 2 0 0 2 0 0 0 0 0 0 0 0 0 0 0 0 10 44 60 60 0 0 0 0 0 0 0 0 0 0 35 23 4 0 0 0 0 0 53 100
0 0 0 0 0 0 2 58 0 0 0 0 5 2 0 0 0 0 0 0 0 0 0 0 0 0 2 10 34 6 0 0 0 13 0 0 0 0 0 30 0 0 0 0 0 0 0 0 0
0 0 0 0 0 0 4 5 69 1 0 4 0 0 0 0 0 0 0 0 0 0 0 0 0 0 0 0 26 64 8 1 1 40 20 0 0 0 0 0 0 0 0 0 0 0 0 0 0
0 0 0 0 0 0 0 0 2 2 0 60 92 3 0 0 0 0 0 0 0 0 0 0 0 0 0 0 1 29 39 17 10 63 26 0 0 0 0 0 0 0 0 0 0 0 0 0 0
0 1 0 0 0 0 0 0 0 4 13 3 16 91 7 0 0 0 0 0 0 0 0 0 0 0 0 0 0 3 22 28 40 60 91 68 28 0 0 0 0 0 0 0 0 0 0 0 0
4 2 0 0 0 1 5 0 0 5 0 0 0 0 3 0 0 0 0 0 0 5 5 1 0 0 0 0 0 0 0 4 100 91 94 78 100 55 0 0 0 0 0 0 0 0 0 0 0
5 4 2 0 0 0 0 0 2 10 2 0 0 0 0 0 0 0 0 0 0 0 3 21 9 0 0 0 0 0 0 0 0 93 92 14 63 86 0 0 0 0 0 0 0 0 0 0 0
11 7 38 5 0 0 2 2 4 0 46 72 0 0 0 0 0 0 0 0 0 0 0 2 5 0 0 0 0 0 0 0 0 0 29 52 25 4 0 0 0 0 0 0 0 0 0 0 0
5 46 36 10 3 2 11 76 5 5 5 87 100 6 0 0 0 0 0 18 5 0 0 0 0 5 0 0 0 0 0 0 0 0 2 30 34 1 0 0 0 0 0 0 0 0 0 0 0
37 25 5 51 3 0 0 75 50 6 20 48 23 4 0 0 0 19 83 56 5 5 5 0 0 0 0 0 0 0 0 0 0 0 0 18 0 0 0 0 0 0 0 0 0 0 0 0 0
63 51 47 5 20 38 3 2 72 97 5 11 12 5 5 4 9 97 100 100 12 16 95 93 34 5 16 5 0 0 0 0 0 10 38 57 30 4 0 0 0 0 0 0 0 0 0 0 0
100 98 22 14 40 64 85 11 40 5 42 61 40 0 3 3 61 36 6 28 79 53 98 87 100 96 92 66 32 5 0 0 0 20 38 100 91 24 0 0 0 0 0 0 0 0 0 0 0
21 49 85 16 5 20 28 52 71 5 42 100 99 52 4 0 5 5 5 5 0 0 5 5 78 82 47 5 26 51 70 1 0 55 100 100 100 85 19 0 0 0 0 2 1 0 4 5 0
8 6 78 84 23 5 43 92 100 100 78 80 96 100 100 44 5 6 5 78 5 2 1 5 5 5 18 6 5 16 13 12 5 5 36 100 100 100 83 27 1 0 0 0 0 5 5 16 6
92 98 94 88 89 98 45 63 37 72 100 99 100 100 100 100 66 18 43 11 5 40 44 12 27 50 6 44 65 7 12 79 28 6 16 33 90 100 100 96 42 2 1 0 0 0 0 3 5
57 30 6 21 46 99 23 98 100 16 17 97 100 100 100 100 100 100 91 10 100 90 49 6 38 90 76 7 98 81 100 92 5 39 57 21 0 41 76 100 97 85 13 0 0 0 0 0 0
8 7 85 42 91 34 49 5 27 69 5 96 100 100 100 100 100 100 100 100 100 100 98 45 89 89 52 100 54 94 25 100 100 100 100 96 86 34 36 94 97 56 65 54 2 0 0 0 0
100 15 68 7 5 97 33 10 100 100 86 8 57 100 100 100 98 99 100 100 100 100 100 100 94 12 5 47 47 39 71 54 100 100 100 100 55 45 98 84 95 89 82 100 40 2 0 0 4
43 60 11 5 14 29 55 37 100 100 19 5 5 50 80 99 68 95 100 100 100 71 71 100 100 100 100 86 7 19 68 80 98 100 100 42 66 82 5 7 68 56 48 98 100 100 95 5 0
64 82 99 38 48 5 86 47 100 100 20 6 6 6 69 8 48 11 90 100 94 58 51 64 74 100 100 93 100 99 87 9 26 68 100 100 25 100 94 14 3 12 62 18 26 8 22 95 22
98 100 100 100 100 77 34 53 100 100 99 91 14 66 5 100 99 81 66 14 73 89 90 45 32 73 98 93 100 100 100 100 100 43 40 98 84 16 80 77 72 97 52 5 58 31 5 4 30
100 100 100 100 100 100 100 100 100 100 94 100 100 96 99 100 100 100 100 100 94 81 94 100 100 99 70 96 100 96 100 100 100 100 100 100 59 91 84 66 46 98 85 70 9 5 2 7 16
100 100 100 100 100 100 100 100 100 70 100 59 100 100 41 85 100 100 100 100 100 100 100 100 100 100 100 100 100 100 100 100 100 92 100 100 100 100 100 100 89 100 100 99 96 92 60 5 10
100 100 100 100 100 100 100 100 51 3 38 85 100 100 100 79 72 95 100 100 100 100 100 99 100 100 100 100 100 99 100 100 100 100 100 100 100 100 100 100 100 100 100 100 100 100 100 88 77